View from above orbital plane
|
View from above satellite
|
Ground track
|
The orbit data is extracted from the following two-line orbital elements,
1 14032U 83037A 21015.56298119 .00000519 00000-0 23404-4 0 9993
2 14032 82.5145 233.7092 0018140 52.2764 308.0110 15.18583405 59842
Epoch (UTC): | 15 January 2021 13:30:41 |
Eccentricity: | 0.0018140 |
inclination: | 82.5145° |
perigee height: | 497 km |
apogee height: | 522 km |
right ascension of ascending node: | 233.7092° |
argument of perigee: | 52.2764° |
revolutions per day: | 15.18583405 |
mean anomaly at epoch: | 308.0110° |
orbit number at epoch: | 5984 |
The dashed part of the orbit path shows where the satellite is in the earth's shadow,
|
|